This demonstration page uses our WeatherBlox Daily Observations layout. Learn more.

Left ArrowRight Arrow

Hourly Observations for March 1, 2022

Temp ( °F °C ) Dew Point ( °F °C ) Humidity (%) Winds ( mph kmh ) Pressure ( in mb ) Visibility ( mi km ) Precip ( " mm )
12:53 am 00:53 Cloudy 40 4.4 36 2.2 86 86 WSW 7 11 29.92 1013 10 16 0.00 0.00
1:53 am 01:53 Cloudy with Light Rain 39 3.9 36 2.2 89 89 S 3 6 29.92 1013 10 16 0.01 0.25
2:53 am 02:53 Cloudy with Light Rain 38 3.3 37 2.8 97 97 NNW 6 9 29.94 1014 10 16 0.02 0.51
3:53 am 03:53 Cloudy with Light Snow 37 2.8 36 2.2 96 96 SE 6 9 29.93 1014 9 14 0.02 0.51
4:53 am 04:53 Cloudy with Light Snow 37 2.8 37 2.8 100 100 Calm 29.94 1014 9 14 0.00 0.00
5:53 am 05:53 Cloudy 36 2.2 35 1.7 97 97 Calm 29.94 1014 10 16 0.00 0.00
6:53 am 06:53 Cloudy 35 1.7 35 1.7 100 100 Calm 29.93 1014 10 16 0.00 0.00
7:53 am 07:53 Cloudy 37 2.8 36 2.2 96 96 Calm 29.93 1014 10 16 0.00 0.00
8:53 am 08:53 Cloudy 38 3.3 37 2.8 97 97 WNW 3 6 29.93 1013 10 16 0.00 0.00
9:53 am 09:53 Cloudy 45 7.2 41 5 86 86 SW 9 15 29.92 1013 10 16 0.00 0.00
10:53 am 10:53 Cloudy 47 8.3 41 5 80 80 WSW 8 13 29.92 1013 10 16 0.00 0.00
11:53 am 11:53 Sunny 51 10.6 41 5 69 69 W 15 24 29.92 1013 10 16 0.00 0.00
12:53 pm 12:53 Sunny 56 13.3 42 5.6 60 60 SW 15 24 29.91 1013 10 16 0.00 0.00
1:53 pm 13:53 Mostly Sunny 62 16.7 38 3.3 41 41 SW 23 37 29.88 1012 10 16 0.00 0.00
2:53 pm 14:53 Sunny 61 16.1 37 2.8 41 41 WSW 18 30 29.89 1012 10 16 0.00 0.00
3:53 pm 15:53 Sunny 61 16.1 33 0.6 35 35 W 25 41 29.90 1013 10 16 0.00 0.00
4:53 pm 16:53 Sunny 59 15 34 1.1 39 39 W 22 35 29.92 1013 10 16 0.00 0.00
5:53 pm 17:53 Sunny 54 12.2 34 1.1 47 47 W 22 35 29.96 1014 10 16 0.00 0.00
6:53 pm 18:53 Clear 48 8.9 35 1.7 61 61 WSW 14 22 29.98 1015 10 16 0.00 0.00
7:53 pm 19:53 Clear 43 6.1 34 1.1 71 71 WSW 15 24 30.01 1016 10 16 0.00 0.00
8:53 pm 20:53 Clear 44 6.7 34 1.1 68 68 SW 15 24 30.02 1017 10 16 0.00 0.00
9:53 pm 21:53 Mostly Clear 41 5 33 0.6 73 73 WSW 10 17 30.02 1017 10 16 0.00 0.00
10:53 pm 22:53 Mostly Clear 43 6.1 33 0.6 68 68 SW 17 28 30.02 1017 10 16 0.00 0.00
11:53 pm 23:53 Cloudy 40 4.4 32 0 73 73 SW 13 20 30.03 1017 10 16 0.00 0.00

Powered by AerisWeather